User: anonymous   Login
Location: St Andrew
(49.4460°N, 2.5750°W)
Time: 06:29:19
(UTC+01:00)
Language:

Iridium 66 - Orbit

View from above orbital plane
View from above orbital plane
View from above satellite
View from above satellite

Ground track
Ground track

The orbit data is extracted from the following two-line orbital elements,

1 25289U 98021E   16241.50835398  .00000007  00000-0 -44576-5 0  9990
2 25289  86.4001 346.1211 0002105  96.5852 355.8758 14.34220900963068
Epoch (UTC): 28 August 2016 12:12:01
Eccentricity: 0.0002105
inclination: 86.4001°
perigee height: 776 km
apogee height: 779 km
right ascension of ascending node: 346.1211°
argument of perigee: 96.5852°
revolutions per day: 14.34220900
mean anomaly at epoch: 355.8758°
orbit number at epoch: 96306

The dashed part of the orbit path shows where the satellite is in the earth's shadow,  

DLR